Tracking 27126 objects as of 30-Mar-2023
HD Live streaming from Space Station
objects crossing your sky now

ARIANE 3 DEB

Track ARIANE 3 DEB now!


NORAD ID: 48348
Int'l Code: 1984-081H
Perigee: 975.4 km
Apogee: 38,071.3 km
Inclination: 7.3 °
Period: 691.1 minutes
Semi major axis: 25894 km
RCS: Unknown
Launch date: August 4, 1984
Source: France (FR)
Launch site: FRENCH GUIANA (FRGUI)

Note: This is SATELLITE DEBRIS
Your satellite tracking list
Your tracking list is empty




NASA's NSSDC Master Catalog

Two Line Element Set (TLE):
1 48348U 84081H   23089.06903927  .00000321  00000-0  26975-1 0  9992
2 48348   7.2622 252.0162 7162942 204.7501  88.9290  2.08351429179069
Source of the keplerian elements: AFSPC